Soerstokken current weather conditions

sailwx.info

Wind from 010 at 2 knots

Air temperature 1.0° C
Visibility: greater than 5.4 NM
Dewpoint -0.0° C

Last reported at 2017-Nov-20 18:20 UTC.
Time now 2017-Nov-21 04:54 UTC

Location: N 59°48' E 005°20'.
View on Google Maps.

See reports from other nearby stations

  
Tides and Currents Weather Stations Pressure Air Temp Water Temp Dewpoint Dewpoint Depression Visibility Wind Speed Wind Dir Waves Ship Positions
date/time (UTC)wind fromknots sea level pressurealtimeterstation pressurevisibilityair tempwater tempwave heightnotes
2017-Nov-20 18:20 010 2 5.4 1.0
2017-Nov-20 17:50 090 2 5.4 1.0
2017-Nov-20 17:20 5.4 1.0
2017-Nov-20 16:50 100 1 5.4 1.0
2017-Nov-20 16:20 130 4 5.4 1.0
2017-Nov-20 15:50 140 6 5.4 1.0 Showers in the vicinity.
2017-Nov-20 15:20 120 4 4.3 2.0 Snow showers.
2017-Nov-20 14:50 100 4 5.4 3.0 Showers in the vicinity.
2017-Nov-20 13:50 130 5 5.4 3.0
2017-Nov-20 13:20 120 4 5.4 3.0
2017-Nov-20 12:50 120 4 5.4 3.0
2017-Nov-20 12:20 130 5 5.4 3.0
2017-Nov-20 11:20 150 5 5.4 3.0
2017-Nov-20 10:50 140 5 5.4 2.0
2017-Nov-20 10:20 130 6 5.4 2.0
2017-Nov-20 09:50 130 5 5.4 2.0
2017-Nov-20 09:20 120 6 5.4 2.0
2017-Nov-20 08:50 130 6 5.4 2.0
2017-Nov-20 08:20 120 6 5.4 2.0
2017-Nov-20 07:20 110 5 5.4 2.0
2017-Nov-20 06:50 120 5 5.4 1.0
2017-Nov-20 06:20 5.4 3.0
2017-Nov-20 05:50 5.4 2.0
2017-Nov-20 05:20 5.4 3.0
2017-Nov-20 04:50 5.4 2.0
2017-Nov-20 04:20 080 2 5.4 1.0
2017-Nov-19 17:20 350 9 gusting 20 5.4 4.0 Light rain showers.
2017-Nov-19 16:50 360 4 5.4 4.0 Showers in the vicinity.
2017-Nov-19 16:20 360 12 5.4 4.0 Rain showers.
2017-Nov-19 15:50 300 7 5.4 5.0 Light rain showers.
2017-Nov-19 15:20 340 6 5.4 4.0 Showers in the vicinity.
2017-Nov-19 14:20 330 14 5.4 6.0 Light rain showers.
2017-Nov-19 13:50 320 14 gusting 25 5.4 6.0 Showers in the vicinity.
2017-Nov-19 13:20 350 14 5.4 6.0 Showers in the vicinity.
2017-Nov-19 12:50 350 13 5.4 6.0
2017-Nov-19 12:20 340 13 5.4 6.0
2017-Nov-19 11:50 350 11 5.4 6.0